Location: Newark
(7.0858°N, 171.3717°E)
Time: 18:09:03
(UTC+00:00)

Vanguard 2 Rocket - All Passes

Search period start: 04 December 2020 00:00
Search period end: 14 December 2020 00:00
Orbit: 553 x 3326 km, 32.9° (Epoch: 04 December)

Date Brightness Start Highest point End Pass type
(mag) Time Alt. Az. Time Alt. Az. Time Alt. Az.
04 Dec - 02:19:07 10° NW 02:32:40 81° NNE 02:39:59 10° ESE daylight
04 Dec - 04:39:58 10° W 04:45:46 20° SW 04:49:58 10° S daylight
04 Dec - 13:44:34 10° SSW 13:52:20 30° SE 14:04:19 10° E visible
04 Dec - 15:55:40 10° SW 16:07:24 89° NNW 16:26:44 10° NE visible
04 Dec - 18:11:41 10° W 18:26:42 44° NNW 18:45:43 10° NE visible
04 Dec - 20:33:28 10° WNW 20:49:41 29° N 21:04:48 10° NE daylight
04 Dec - 22:56:33 10° NW 23:12:47 32° NNE 23:24:20 10° ENE daylight
05 Dec - 01:16:28 10° NW 01:31:55 60° NNE 01:40:35 10° ESE daylight
05 Dec - 03:36:22 10° WNW 03:46:24 39° SW 03:52:24 10° SSE daylight
05 Dec - 12:47:37 10° SSE 12:52:21 15° SE 12:58:28 10° ESE visible
05 Dec - 14:56:19 10° SW 15:06:16 69° SE 15:23:33 10° ENE visible
05 Dec - 17:10:26 10° W 17:23:50 54° NNW 17:43:17 10° NE visible
05 Dec - 19:30:01 10° WNW 19:45:43 32° NNW 20:02:28 10° NE daylight
05 Dec - 21:53:01 10° NW 22:09:33 30° N 22:22:43 10° ENE daylight
06 Dec - 00:13:40 10° NW 00:30:26 48° NNE 00:40:38 10° E daylight
06 Dec - 02:33:15 10° WNW 02:46:39 66° SW 02:53:59 10° SE daylight
06 Dec - 13:57:34 10° SSW 14:05:49 46° SE 14:19:54 10° ENE visible
06 Dec - 16:09:59 10° WSW 16:21:38 67° NNW 16:40:36 10° NE visible
06 Dec - 18:27:24 10° WNW 18:42:02 36° NNW 18:59:54 10° NE daylight
06 Dec - 20:49:27 10° NW 21:05:46 29° N 21:20:28 10° ENE daylight
06 Dec - 23:10:44 10° NW 23:28:13 40° NNE 23:40:01 10° E daylight
07 Dec - 01:30:17 10° NW 01:46:15 86° NE 01:54:59 10° ESE daylight
07 Dec - 03:52:06 10° W 03:59:53 23° SW 04:05:13 10° S daylight
07 Dec - 12:59:33 10° S 13:05:56 27° SE 13:15:40 10° E visible
07 Dec - 15:10:14 10° WSW 15:20:09 85° NW 15:37:42 10° NE visible
07 Dec - 17:25:41 10° W 17:38:50 42° NNW 17:57:10 10° NE visible
07 Dec - 19:46:11 10° WNW 20:01:43 29° N 20:17:42 10° NE daylight
07 Dec - 22:07:43 10° NW 22:25:17 35° NNE 22:38:40 10° ENE daylight
08 Dec - 00:27:24 10° NW 00:45:07 66° NNE 00:55:26 10° ESE daylight
08 Dec - 02:48:00 10° WNW 03:00:15 42° SW 03:07:27 10° SSE daylight
08 Dec - 12:03:16 10° SSE 12:06:16 13° SE 12:09:51 10° ESE night (unlit)
08 Dec - 14:11:05 10° SW 14:19:26 70° SE 14:34:35 10° ENE visible
08 Dec - 16:24:48 10° W 16:36:17 50° NNW 16:54:21 10° NE visible
08 Dec - 18:43:26 10° WNW 18:57:46 31° N 19:14:37 10° NE daylight
08 Dec - 21:04:44 10° NW 21:21:45 32° N 21:36:31 10° ENE daylight
08 Dec - 23:24:35 10° NW 23:43:13 53° NNE 23:55:14 10° E daylight
09 Dec - 01:44:28 10° WNW 02:00:08 66° SW 02:08:53 10° SE daylight
09 Dec - 04:10:02 10° WSW 04:13:29 12° SW 04:16:25 10° SSW daylight
09 Dec - 13:12:30 10° SSW 13:19:23 44° SE 13:31:14 10° ENE visible
09 Dec - 15:24:38 10° WSW 15:34:28 62° NNW 15:51:31 10° NE visible
09 Dec - 17:41:24 10° WNW 17:54:16 33° NNW 18:11:23 10° NE visible
09 Dec - 20:01:55 10° NW 20:17:48 30° N 20:33:35 10° ENE daylight
09 Dec - 22:21:53 10° NW 22:40:38 44° NNE 22:54:20 10° E daylight
10 Dec - 00:41:15 10° NW 00:59:20 90° NNE 01:09:44 10° SE daylight
10 Dec - 03:03:44 10° W 03:13:43 26° SW 03:20:20 10° S daylight
10 Dec - 12:14:41 10° S 12:19:50 24° SE 12:27:26 10° E night (unlit)
10 Dec - 14:25:04 10° WSW 14:33:24 81° NNW 14:48:41 10° NE visible
10 Dec - 16:40:07 10° W 16:51:23 38° NNW 17:08:13 10° NE visible
10 Dec - 18:59:25 10° NW 19:13:47 29° N 19:30:03 10° NE daylight
10 Dec - 21:19:20 10° NW 21:37:25 37° NNE 21:52:32 10° E daylight
10 Dec - 23:38:20 10° NW 23:57:48 70° NNE 00:09:58 10° ESE daylight
11 Dec - 01:59:15 10° WNW 02:13:42 44° SW 02:22:20 10° SSE daylight
11 Dec - 13:26:02 10° SW 13:33:02 71° SE 13:45:52 10° ENE visible
11 Dec - 15:39:31 10° W 15:49:13 44° NNW 16:05:13 10° NE visible
11 Dec - 17:57:21 10° WNW 18:10:03 29° N 18:26:13 10° NE visible
11 Dec - 20:17:01 10° NW 20:33:43 33° NNE 20:49:48 10° ENE daylight
11 Dec - 22:35:43 10° NW 22:55:32 57° NNE 23:09:30 10° ESE daylight
12 Dec - 00:55:28 10° WNW 01:13:10 66° SW 01:23:35 10° SE daylight
12 Dec - 03:21:12 10° WSW 03:27:19 15° SW 03:32:07 10° SSW daylight
12 Dec - 12:27:34 10° SSW 12:33:19 41° SE 12:42:59 10° ENE night (unlit)
12 Dec - 14:39:33 10° WSW 14:47:47 55° NNW 15:02:27 10° NE visible
12 Dec - 16:55:50 10° WNW 17:06:52 30° N 17:22:28 10° NE visible
12 Dec - 19:14:56 10° NW 19:29:49 29° N 19:46:09 10° ENE daylight
12 Dec - 21:33:26 10° NW 21:52:38 46° NNE 22:08:12 10° E daylight
12 Dec - 23:52:14 10° NW 00:11:56 88° SW 00:24:12 10° SE daylight
13 Dec - 02:14:58 10° W 02:27:11 29° SW 02:35:15 10° SSE daylight
13 Dec - 11:29:53 10° S 11:34:00 21° SE 11:39:43 10° E night (unlit)
13 Dec - 13:40:06 10° WSW 13:47:04 75° NNW 13:59:55 10° NE visible
13 Dec - 15:54:54 10° WNW 16:04:23 33° NNW 16:19:03 10° NE visible
13 Dec - 18:13:09 10° NW 18:26:01 27° N 18:41:51 10° NE visible
13 Dec - 20:31:28 10° NW 20:49:16 39° NNE 21:05:54 10° E daylight
13 Dec - 22:49:30 10° NW 23:09:59 74° NNE 23:24:08 10° ESE daylight
